DW0805 Weather Reports


time (UTC)temp
F
wind
direction
speed
knots
gust
knots
rain 1hr
in
rain 24hr
in
rain mn
in
humidity
%
barometer
mb
20260903055515 60 184 0.9 5.2 0.02 0.35 0.26 95 1011.2
20260903053515 59 69 0.0 0.9 0.09 0.35 0.26 94 1011.4
20260903050515 59 192 0.0 0.0 0.18 0.35 0.25 94 1011.6
20260903045515 59 191 0.0 0.9 0.20 0.33 0.24 93 1011.7
20260903041515 59 245 0.0 0.0 0.12 0.21 0.12 93 1012.1
20260903040515 59 245 0.0 2.6 0.07 0.17 0.07 93 1012.1
20260903034515 59 226 1.7 4.3 0.02 0.12 0.02 92 1012.4
20260903033515 59 225 1.7 4.3 0.01 0.10 0.01 92 1012.3
20260903030515 59 226 1.7 4.3 0.00 0.09 0.00 92 1012.4
20260903024515 59 225 2.6 4.3 0.00 0.09 0.00 91 1012.7
20260903023516 59 248 1.7 2.6 0.00 0.09 0.00 91 1012.7
20260903015515 59 248 1.7 2.6 0.00 0.09 0.00 91 1013.2
20260903005516 59 248 2.6 5.2 0.00 0.09 0.00 89 1013.3
20260903004516 59 238 4.3 5.2 0.00 0.09 0.00 88 1013.4
20260903003515 59 238 2.6 7.0 0.00 0.09 0.00 88 1013.5
20260903002515 59 251 6.1 10.4 0.00 0.09 0.00 87 1013.5
20260903000515 59 263 4.3 7.0 0.00 0.09 0.00 88 1013.6
20260902235515 59 254 4.3 10.4 0.00 0.09 0.00 87 1013.6
20260902224515 59 247 5.2 11.3 0.00 0.09 0.00 88 1013.7
20260902221511 59 240 4.3 8.7 0.00 0.09 0.00 90 1013.8
20260902215515 59 241 6.1 11.3 0.00 0.13 0.09 91 1013.6
20260902213515 60 238 5.2 10.4 0.00 0.13 0.09 93 1013.5
20260902212515 60 243 6.1 11.3 0.00 0.13 0.09 93 1013.4
20260902211516 60 235 5.2 11.3 0.00 0.13 0.09 93 1013.5
20260902210515 60 229 6.1 10.4 0.00 0.13 0.09 93 1013.5
20260902203515 60 232 5.2 10.4 0.00 0.13 0.09 93 1013.6
20260902194516 60 232 7.8 12.2 0.00 0.13 0.09 92 1013.6
20260902193514 60 225 6.1 12.2 0.00 0.13 0.09 92 1013.6
20260902191514 60 239 7.0 12.2 0.00 0.13 0.09 92 1013.6
20260902190514 60 232 6.1 12.2 0.00 0.13 0.09 92 1013.6
20260902185516 60 232 7.8 13.9 0.00 0.13 0.09 92 1013.6
20260902184515 60 249 7.8 12.2 0.00 0.13 0.09 92 1013.5
20260902183513 61 233 6.1 11.3 0.00 0.13 0.09 92 1013.3
20260902181515 61 287 8.7 13.0 0.00 0.13 0.09 91 1013.2
20260902171514 63 232 7.8 12.2 0.00 0.13 0.09 89 1013.1
20260902165515 62 232 6.1 13.9 0.00 0.13 0.09 90 1013.3
20260902164515 62 233 10.4 13.9 0.00 0.13 0.09 90 1013.3
20260902161515 64 197 8.7 14.8 0.00 0.13 0.09 89 1013.4
20260902154514 62 233 8.7 13.0 0.00 0.13 0.09 90 1013.5
20260902152514 62 277 7.8 13.0 0.00 0.13 0.09 91 1013.6
20260902151514 62 221 7.8 13.9 0.00 0.13 0.09 91 1013.7
20260902145514 62 246 8.7 14.8 0.00 0.13 0.09 92 1013.7
20260902144514 62 222 7.0 13.9 0.00 0.13 0.09 93 1013.6
20260902140514 61 237 5.2 11.3 0.02 0.13 0.09 93 1013.7
20260902135514 60 248 5.2 8.7 0.05 0.13 0.09 93 1013.7
20260902134515 60 237 3.5 7.8 0.09 0.13 0.09 93 1013.7
20260902132514 59 237 5.2 8.7 0.09 0.13 0.09 92 1013.9
20260902131514 59 237 5.2 11.3 0.09 0.13 0.09 91 1014.0
20260902125515 62 315 14.8 24.3 0.05 0.09 0.05 84 1013.9
20260902124514 65 254 10.4 13.9 0.00 0.04 0.00 84 1013.7
20260902122514 67 233 8.7 14.8 0.00 0.04 0.00 80 1013.7
20260902120515 68 247 9.6 17.4 0.00 0.04 0.00 78 1013.8
20260902115515 67 228 8.7 20.0 0.00 0.04 0.00 77 1013.9
20260902114515 67 280 8.7 18.2 0.00 0.04 0.00 76 1013.8
20260902113514 68 244 10.4 18.2 0.00 0.04 0.00 76 1013.9
20260902111515 69 229 9.6 19.1 0.00 0.04 0.00 74 1013.9
20260902105514 68 236 11.3 18.2 0.00 0.04 0.00 76 1014.0
20260902104514 68 241 12.2 17.4 0.00 0.04 0.00 76 1014.0
20260902094515 67 248 11.3 18.2 0.00 0.04 0.00 78 1014.0
20260902091514 66 252 8.7 14.8 0.00 0.04 0.00 82 1014.1
20260902085514 66 313 8.7 14.8 0.00 0.04 0.00 83 1014.1
20260902084514 65 231 10.4 13.9 0.00 0.04 0.00 83 1014.1
20260902083514 65 307 7.0 11.3 0.00 0.04 0.00 86 1014.2
20260902081515 64 295 5.2 13.9 0.00 0.04 0.00 87 1014.1
20260902080515 63 236 11.3 14.8 0.00 0.04 0.00 87 1014.2
20260902075514 64 235 7.8 13.9 0.00 0.04 0.00 88 1014.1
20260902070515 63 223 7.8 13.9 0.00 0.04 0.00 90 1013.8
20260902065514 62 233 8.7 13.0 0.00 0.04 0.00 90 1013.9
20260902064516 62 234 7.8 13.0 0.00 0.04 0.00 90 1013.9
20260902063514 62 244 9.6 14.8 0.00 0.04 0.00 91 1013.9